This is the latest recevied weather packets stored in our database for station/object KD7CIH. If no packets are shown the sender has not sent any weather packets the latest 10 day(s).
| Time | Temp. | Humidity | Pressure | Rain* | Wind** | Luminosity | Snow |
|---|---|---|---|---|---|---|---|
| 1777086334 | 2.78° C | 53% | 1004.6 hPa | 0 mm | - | - | - |
| 1777086035 | 3.33° C | 52% | 1004.1 hPa | 0 mm | - | - | - |
| 1777085860 | 3.33° C | 50% | 1003.6 hPa | 0 mm | - | - | - |
| 1777085433 | 3.89° C | 47% | 1003.2 hPa | 0 mm | - | - | - |
| 1777085135 | 3.89° C | 45% | 1002.9 hPa | 0 mm | - | - | - |
| 1777084832 | 5° C | 43% | 1002.6 hPa | 0 mm | - | - | - |
| 1777084660 | 5.56° C | 42% | 1002.4 hPa | 0 mm | - | - | - |
| 1777084233 | 5.56° C | 42% | 1002.2 hPa | 0 mm | - | - | - |
| 1777084060 | 6.11° C | 41% | 1002.2 hPa | 0 mm | - | - | - |
| 1777083633 | 6.11° C | 41% | 1001.8 hPa | 0 mm | - | - | - |
| 1777083460 | 6.11° C | 41% | 1001.5 hPa | 0 mm | - | - | - |
| 1777083161 | 6.67° C | 41% | 1001.5 hPa | 0 mm | - | - | - |
| 1777082736 | 6.67° C | 41% | 1001.4 hPa | 0 mm | - | - | - |
| 1777082435 | 6.67° C | 41% | 1001.3 hPa | 0 mm | - | - | - |
| 1777082136 | 6.67° C | 40% | 1001.2 hPa | 0 mm | - | - | - |
| 1777081836 | 7.22° C | 39% | 1001.3 hPa | 0 mm | - | - | - |
| 1777081535 | 7.78° C | 39% | 1000.9 hPa | 0 mm | - | - | - |
| 1777081234 | 7.78° C | 38% | 1000.9 hPa | 0 mm | - | - | - |
| 1777080936 | 8.33° C | 37% | 1000.8 hPa | 0 mm | - | - | - |
| 1777080636 | 8.33° C | 37% | 1000.7 hPa | 0 mm | - | - | - |
| 1777080345 | 8.89° C | 36% | 1000.7 hPa | 0 mm | - | - | - |
| 1777080038 | 8.89° C | 35% | 1000.6 hPa | 0 mm | - | - | - |
| 1777079736 | 9.44° C | 35% | 1000.7 hPa | 0 mm | - | - | - |
| 1777079435 | 9.44° C | 34% | 1000.6 hPa | 0 mm | - | - | - |
| 1777079135 | 9.44° C | 34% | 1000.5 hPa | 0 mm | - | - | - |
* Rain latest hour (hover to see other rain measurements)
** Current wind speed in m/s (hover to see current wind gust speed)